SIA33 KSFO-WSSS

Flight info

Callsign SIA33
Flight time N/A
Altitude 34000
Route GNNRR3 GNNRR DCT ALCOA DCT 39N140W 40N150W 40N160W/N0498F360 35N170W 31N180E/N0486F380 28N170E 25N160E 21N150E/N0487F400 17N140E DCT ENDAX P515 TOKON M767 TODAM/N0482F430 M767 TOMAN KARTO2A
Aircraft A359/H-SDE2E3GHIJ3J4J5LM1ORWXY/LB1D1

Departure

Time 2026-05-06 21:27
Airport San Francisco International Airport (KSFO)

Arrival

Time N/A
Airport Singapore Changi Airport (WSSS)
Time Latitude Longitude Altitude Speed Heading
2026-05-06 20:49 37.61397 -122.38736 28 ft 0 kts 340°
2026-05-06 21:10 37.61378 -122.38728 28 ft 4 kts 347°
2026-05-06 21:10 37.61354 -122.38723 27 ft 4 kts
2026-05-06 21:11 37.61334 -122.38725 27 ft 4 kts
2026-05-06 21:11 37.61308 -122.38724 27 ft 4 kts 337°
2026-05-06 21:11 37.61295 -122.38708 27 ft 3 kts 271°
2026-05-06 21:11 37.61285 -122.38726 28 ft 4 kts 221°
2026-05-06 21:12 37.61261 -122.38741 28 ft 4 kts 204°
2026-05-06 21:12 37.61238 -122.38755 28 ft 2 kts 207°
2026-05-06 21:12 37.61216 -122.38770 28 ft 4 kts 207°
2026-05-06 21:12 37.61192 -122.38785 28 ft 4 kts 207°
2026-05-06 21:13 37.61168 -122.38801 28 ft 4 kts 207°
2026-05-06 21:13 37.61144 -122.38817 28 ft 3 kts 207°
2026-05-06 21:13 37.61140 -122.38820 28 ft 0 kts 207°
2026-05-06 21:16 37.61138 -122.38821 28 ft 2 kts 207°
2026-05-06 21:16 37.61096 -122.38849 28 ft 10 kts 207°
2026-05-06 21:17 37.61034 -122.38871 28 ft 9 kts 170°
2026-05-06 21:17 37.60991 -122.38819 28 ft 10 kts 123°
2026-05-06 21:17 37.60947 -122.38713 28 ft 16 kts 118°
2026-05-06 21:17 37.60893 -122.38583 27 ft 17 kts 117°
2026-05-06 21:18 37.60872 -122.38461 28 ft 11 kts 104°
2026-05-06 21:18 37.60870 -122.38416 28 ft 7 kts 76°
2026-05-06 21:18 37.60912 -122.38370 28 ft 10 kts 28°
2026-05-06 21:18 37.60992 -122.38317 28 ft 16 kts 27°
2026-05-06 21:19 37.61106 -122.38241 28 ft 21 kts 28°
2026-05-06 21:19 37.61253 -122.38145 28 ft 25 kts 27°
2026-05-06 21:19 37.61407 -122.38042 28 ft 25 kts 28°
2026-05-06 21:19 37.61557 -122.37943 28 ft 24 kts 28°
2026-05-06 21:20 37.61658 -122.37871 28 ft 9 kts 41°
2026-05-06 21:20 37.61668 -122.37799 28 ft 9 kts 99°
2026-05-06 21:20 37.61657 -122.37690 28 ft 16 kts 97°
2026-05-06 21:20 37.61640 -122.37519 28 ft 23 kts 97°
2026-05-06 21:21 37.61617 -122.37299 28 ft 26 kts 100°
2026-05-06 21:21 37.61544 -122.37093 28 ft 26 kts 118°
2026-05-06 21:21 37.61451 -122.36903 28 ft 25 kts 132°
2026-05-06 21:21 37.61344 -122.36736 28 ft 24 kts 116°
2026-05-06 21:22 37.61269 -122.36549 27 ft 24 kts 118°
2026-05-06 21:22 37.61190 -122.36366 28 ft 24 kts 118°
2026-05-06 21:22 37.61114 -122.36184 28 ft 23 kts 118°
2026-05-06 21:22 37.61056 -122.36046 28 ft 14 kts 112°
2026-05-06 21:23 37.61065 -122.35939 28 ft 14 kts 62°
2026-05-06 21:23 37.61134 -122.35881 28 ft 13 kts 25°
2026-05-06 21:23 37.61209 -122.35833 28 ft 11 kts 28°
2026-05-06 21:23 37.61265 -122.35794 28 ft 1 kts 28°
2026-05-06 21:25 37.61281 -122.35783 28 ft 8 kts 28°
2026-05-06 21:25 37.61334 -122.35749 28 ft 9 kts 21°
2026-05-06 21:26 37.61375 -122.35773 28 ft 6 kts 301°
2026-05-06 21:26 37.61395 -122.35818 28 ft 6 kts 298°
2026-05-06 21:26 37.61428 -122.35895 27 ft 24 kts 298°
2026-05-06 21:26 37.61603 -122.36311 27 ft 82 kts 297°
2026-05-06 21:27 37.61955 -122.37152 28 ft 133 kts 298°
2026-05-06 21:27 37.62444 -122.38329 233 ft 156 kts 297°
2026-05-06 21:27 37.62934 -122.39501 824 ft 154 kts 297°
2026-05-06 21:27 37.63481 -122.40744 1125 ft 167 kts 299°
2026-05-06 21:28 37.64084 -122.42039 1379 ft 177 kts 299°
2026-05-06 21:28 37.64689 -122.43470 1618 ft 192 kts 297°
2026-05-06 21:28 37.65310 -122.45047 1804 ft 210 kts 297°
2026-05-06 21:28 37.65998 -122.46763 2057 ft 227 kts 298°
2026-05-06 21:29 37.66753 -122.48598 2364 ft 243 kts 298°
2026-05-06 21:29 37.67402 -122.50586 2757 ft 253 kts 285°
2026-05-06 21:29 37.67743 -122.52820 3279 ft 258 kts 278°
2026-05-06 21:29 37.67925 -122.55059 3791 ft 261 kts 275°
2026-05-06 21:30 37.68039 -122.57359 4309 ft 263 kts 276°
2026-05-06 21:30 37.68135 -122.59676 4831 ft 266 kts 276°
2026-05-06 21:30 37.68236 -122.62018 5325 ft 269 kts 276°
2026-05-06 21:30 37.68351 -122.64382 5834 ft 272 kts 276°
2026-05-06 21:31 37.68483 -122.66775 6299 ft 276 kts 276°
2026-05-06 21:31 37.68623 -122.69208 6791 ft 279 kts 277°
2026-05-06 21:31 37.68768 -122.71660 7297 ft 281 kts 277°
2026-05-06 21:31 37.68919 -122.74136 7863 ft 283 kts 276°
2026-05-06 21:32 37.69071 -122.76624 8424 ft 285 kts 276°
2026-05-06 21:32 37.69369 -122.81651 9561 ft 289 kts 277°
2026-05-06 21:32 37.69519 -122.84193 10129 ft 292 kts 275°
2026-05-06 21:33 37.69675 -122.86796 10414 ft 305 kts 276°
2026-05-06 21:33 37.69837 -122.89536 10643 ft 319 kts 275°
2026-05-06 21:33 37.70005 -122.92378 10883 ft 332 kts 275°
2026-05-06 21:33 37.70178 -122.95344 11120 ft 344 kts 275°
2026-05-06 21:34 37.70354 -122.98418 11370 ft 356 kts 275°
2026-05-06 21:34 37.70536 -123.01594 11605 ft 368 kts 275°
2026-05-06 21:34 37.70722 -123.04866 11819 ft 379 kts 274°
2026-05-06 21:34 37.70913 -123.08238 12038 ft 390 kts 275°
2026-05-06 21:35 37.71109 -123.11699 12263 ft 399 kts 275°
2026-05-06 21:35 37.71305 -123.15180 12489 ft 407 kts 275°
2026-05-06 21:35 37.71507 -123.18775 12891 ft 410 kts 274°
2026-05-06 21:35 37.71707 -123.22356 13348 ft 412 kts 274°
2026-05-06 21:36 37.71909 -123.25990 13719 ft 414 kts 274°
2026-05-06 21:36 37.72109 -123.29627 14092 ft 418 kts 274°
2026-05-06 21:36 37.72312 -123.33322 14354 ft 423 kts 274°
2026-05-06 21:36 37.72514 -123.37032 14735 ft 424 kts 274°
2026-05-06 21:37 37.72716 -123.40763 15025 ft 428 kts 274°
2026-05-06 21:37 37.72918 -123.44512 15504 ft 427 kts 275°
2026-05-06 21:37 37.73119 -123.48256 15894 ft 427 kts 274°
2026-05-06 21:37 37.73320 -123.52013 16306 ft 428 kts 275°
2026-05-06 21:38 37.73519 -123.55785 16567 ft 433 kts 275°
2026-05-06 21:38 37.73719 -123.59584 16916 ft 436 kts 275°
2026-05-06 21:38 37.73917 -123.63374 17293 ft 436 kts 275°
2026-05-06 21:38 37.74109 -123.67058 17790 ft 433 kts 275°
2026-05-06 21:39 37.74304 -123.70837 18155 ft 434 kts 275°
2026-05-06 21:39 37.74501 -123.74670 18418 ft 439 kts 275°
2026-05-06 21:39 37.74699 -123.78536 18709 ft 442 kts 275°
2026-05-06 21:39 37.74896 -123.82428 19021 ft 444 kts 275°
2026-05-06 21:40 37.75092 -123.86328 19383 ft 445 kts 275°
2026-05-06 21:40 37.75288 -123.90242 19752 ft 446 kts 275°
2026-05-06 21:40 37.75482 -123.94151 20134 ft 448 kts 275°
2026-05-06 21:40 37.75677 -123.98095 20492 ft 449 kts 275°
2026-05-06 21:41 37.75869 -124.02035 20873 ft 451 kts 275°
2026-05-06 21:41 37.76063 -124.06005 21228 ft 453 kts 275°
2026-05-06 21:41 37.76253 -124.09931 21624 ft 454 kts 275°
2026-05-06 21:41 37.76445 -124.13916 22003 ft 455 kts 275°
2026-05-06 21:42 37.76635 -124.17926 22361 ft 457 kts 275°
2026-05-06 21:42 37.76826 -124.21956 22727 ft 459 kts 275°
2026-05-06 21:42 37.77015 -124.25995 23124 ft 461 kts 275°
2026-05-06 21:42 37.77204 -124.30036 23489 ft 462 kts 275°
2026-05-06 21:43 37.77393 -124.34104 23864 ft 465 kts 275°
2026-05-06 21:43 37.77580 -124.38191 24173 ft 467 kts 275°
2026-05-06 21:43 37.77768 -124.42313 24468 ft 469 kts 275°
2026-05-06 21:43 37.77955 -124.46443 24780 ft 472 kts 275°
2026-05-06 21:44 37.78141 -124.50587 25068 ft 474 kts 275°
2026-05-06 21:44 37.78328 -124.54763 25387 ft 477 kts 275°
2026-05-06 21:44 37.78513 -124.58968 25678 ft 479 kts 275°
2026-05-06 21:44 37.78698 -124.63179 25985 ft 481 kts 275°
2026-05-06 21:45 37.78882 -124.67408 26283 ft 484 kts 275°
2026-05-06 21:45 37.79065 -124.71665 26577 ft 486 kts 275°
2026-05-06 21:45 37.79248 -124.75941 26870 ft 488 kts 275°
2026-05-06 21:45 37.79430 -124.80240 27167 ft 490 kts 274°
2026-05-06 21:46 37.79612 -124.84559 27440 ft 493 kts 274°
2026-05-06 21:46 37.79790 -124.88838 27706 ft 495 kts 274°
2026-05-06 21:46 37.79969 -124.93184 27979 ft 497 kts 274°
2026-05-06 21:46 37.80148 -124.97554 28252 ft 499 kts 274°
2026-05-06 21:47 37.80326 -125.01948 28516 ft 500 kts 274°
2026-05-06 21:47 37.80502 -125.06346 28737 ft 502 kts 274°
2026-05-06 21:47 37.80678 -125.10764 28985 ft 504 kts 274°
2026-05-06 21:47 37.80853 -125.15200 29271 ft 505 kts 274°
2026-05-06 21:48 37.81026 -125.19636 29656 ft 504 kts 274°
2026-05-06 21:48 37.81197 -125.24069 29989 ft 503 kts 274°
2026-05-06 21:48 37.81366 -125.28490 30314 ft 503 kts 274°
2026-05-06 21:48 37.81533 -125.32911 30593 ft 502 kts 274°
2026-05-06 21:49 37.81698 -125.37324 30880 ft 501 kts 274°
2026-05-06 21:49 37.81860 -125.41675 31159 ft 500 kts 274°
2026-05-06 21:49 37.82021 -125.46055 31430 ft 500 kts 274°
2026-05-06 21:49 37.82181 -125.50456 31697 ft 499 kts 274°
2026-05-06 21:50 37.82338 -125.54828 31998 ft 497 kts 274°
2026-05-06 21:50 37.82494 -125.59207 32226 ft 497 kts 274°
2026-05-06 21:50 37.82648 -125.63569 32429 ft 497 kts 274°
2026-05-06 21:50 37.82802 -125.67948 32672 ft 496 kts 273°
2026-05-06 21:51 37.82952 -125.72297 32909 ft 496 kts 273°
2026-05-06 21:51 37.83101 -125.76658 33109 ft 496 kts 274°
2026-05-06 21:51 37.83257 -125.81030 33210 ft 498 kts 275°
2026-05-06 21:51 37.83670 -125.85373 33384 ft 496 kts 280°
2026-05-06 21:52 37.84230 -125.89674 33627 ft 496 kts 281°
2026-05-06 21:52 37.84824 -125.93953 33894 ft 494 kts 281°
2026-05-06 21:52 37.85434 -125.98222 34137 ft 492 kts 281°
2026-05-06 21:52 37.86052 -126.02493 34248 ft 494 kts 281°
2026-05-06 21:53 37.87294 -126.11101 34252 ft 499 kts 280°
2026-05-06 21:53 37.88518 -126.19688 34252 ft 498 kts 280°
2026-05-06 21:54 37.89738 -126.28326 34252 ft 498 kts 280°
2026-05-06 21:54 37.90949 -126.36956 34256 ft 497 kts 280°
2026-05-06 21:55 37.92150 -126.45572 34252 ft 496 kts 280°
2026-05-06 21:55 37.93344 -126.54175 34251 ft 496 kts 280°
2026-05-06 21:56 37.94533 -126.62792 34259 ft 496 kts 279°
2026-05-06 21:56 37.95716 -126.71411 34260 ft 496 kts 279°
2026-05-06 21:57 37.96884 -126.79970 34257 ft 496 kts 279°
2026-05-06 21:57 37.98053 -126.88585 34257 ft 496 kts 279°
2026-05-06 21:58 37.99216 -126.97205 34263 ft 496 kts 279°
2026-05-06 21:58 38.00373 -127.05834 34265 ft 496 kts 279°
2026-05-06 21:59 38.01524 -127.14457 34263 ft 495 kts 279°
2026-05-06 21:59 38.02666 -127.23068 34263 ft 495 kts 278°
2026-05-06 22:00 38.03799 -127.31669 34267 ft 494 kts 278°
2026-05-06 22:00 38.04925 -127.40272 34268 ft 494 kts 278°
2026-05-06 22:01 38.06046 -127.48873 34264 ft 494 kts 278°
2026-05-06 22:01 38.07161 -127.57460 34267 ft 491 kts 278°
2026-05-06 22:02 38.08254 -127.65958 34268 ft 491 kts 278°
2026-05-06 22:02 38.09349 -127.74520 34272 ft 492 kts 278°
2026-05-06 22:03 38.10439 -127.83084 34273 ft 491 kts 278°
2026-05-06 22:03 38.11343 -127.90227 34274 ft 491 kts 278°
2026-05-06 22:04 38.12420 -127.98788 34273 ft 491 kts 278°
2026-05-06 22:04 38.13490 -128.07346 34277 ft 491 kts 278°
2026-05-06 22:05 38.14556 -128.15922 34279 ft 491 kts 278°
2026-05-06 22:05 38.15615 -128.24492 34278 ft 490 kts 278°
2026-05-06 22:06 38.16665 -128.33039 34278 ft 490 kts 277°
2026-05-06 22:06 38.17709 -128.41600 34281 ft 490 kts 278°
2026-05-06 22:07 38.18746 -128.50152 34280 ft 490 kts 277°
2026-05-06 22:07 38.19772 -128.58661 34281 ft 489 kts 277°
2026-05-06 22:08 38.20796 -128.67215 34285 ft 489 kts 277°
2026-05-06 22:08 38.21812 -128.75757 34285 ft 488 kts 277°
2026-05-06 22:09 38.22822 -128.84298 34291 ft 488 kts 277°
2026-05-06 22:09 38.23827 -128.92855 34291 ft 488 kts 277°
2026-05-06 22:10 38.24824 -129.01402 34290 ft 488 kts 277°
2026-05-06 22:10 38.25814 -129.09933 34293 ft 487 kts 277°
2026-05-06 22:11 38.26796 -129.18459 34289 ft 487 kts 277°
2026-05-06 22:11 38.27772 -129.26989 34290 ft 487 kts 277°
2026-05-06 22:12 38.28743 -129.35526 34290 ft 487 kts 277°
2026-05-06 22:12 38.29698 -129.43985 34289 ft 485 kts 277°
2026-05-06 22:13 38.30652 -129.52489 34293 ft 485 kts 277°
2026-05-06 22:13 38.31599 -129.60990 34292 ft 485 kts 277°
2026-05-06 22:14 38.32539 -129.69484 34296 ft 484 kts 277°
2026-05-06 22:14 38.33473 -129.77982 34295 ft 484 kts 276°
2026-05-06 22:15 38.34401 -129.86478 34300 ft 484 kts 276°
2026-05-06 22:15 38.35321 -129.94960 34300 ft 484 kts 276°
2026-05-06 22:16 38.36235 -130.03453 34297 ft 484 kts 276°
2026-05-06 22:16 38.37144 -130.11956 34301 ft 484 kts 277°
2026-05-06 22:17 38.38041 -130.20396 34301 ft 484 kts 276°
2026-05-06 22:17 38.38943 -130.28953 34300 ft 484 kts 276°
2026-05-06 22:18 38.39826 -130.37386 34303 ft 484 kts 276°
2026-05-06 22:18 38.40710 -130.45895 34302 ft 484 kts 277°
2026-05-06 22:19 38.41589 -130.54412 34303 ft 484 kts 277°
2026-05-06 22:19 38.42462 -130.62938 34303 ft 485 kts 277°
2026-05-06 22:20 38.43331 -130.71478 34306 ft 485 kts 277°
2026-05-06 22:20 38.44192 -130.80001 34305 ft 485 kts 277°
2026-05-06 22:21 38.45047 -130.88538 34309 ft 485 kts 277°
2026-05-06 22:21 38.45892 -130.97026 34308 ft 485 kts 277°
2026-05-06 22:22 38.46737 -131.05583 34309 ft 485 kts 277°
2026-05-06 22:22 38.47573 -131.14120 34312 ft 485 kts 277°
2026-05-06 22:23 38.48404 -131.22673 34312 ft 485 kts 277°
2026-05-06 22:23 38.49228 -131.31216 34311 ft 485 kts 277°